KF0PEC-15 Weather Reports


Display with metric or nautical units.
time (UTC)temp
F
wind
direction
speed
MPH
gust
MPH
rain 1hr
in
rain 24hr
in
rain mn
in
humidity
%
barometer
mb
20260505211412 38 150 3.0 8.0 0.00 0.00 0.00 94 1017.5
20260505210545 38 163 3.0 5.0 0.00 0.00 0.00 94 1017.6
20260505205610 38 148 2.0 6.0 0.00 0.00 0.00 94 1017.9
20260505204700 38 148 3.0 6.0 0.00 0.00 0.00 94 1017.7
20260505203725 38 135 2.0 4.0 0.00 0.00 0.00 94 1017.6
20260505202850 38 145 2.0 5.0 0.00 0.00 0.00 94 1017.7
20260505202000 38 135 3.0 6.0 0.00 0.00 0.00 94 1017.9
20260505201005 38 134 3.0 9.0 0.00 0.00 0.00 94 1018.1
20260505200200 38 161 3.0 9.0 0.00 0.00 0.00 94 1018.1
20260505195235 38 143 2.0 4.0 0.00 0.00 0.00 94 1018.2
20260505194250 38 153 2.0 4.0 0.00 0.00 0.00 94 1018.2
20260505193320 38 146 2.0 5.0 0.00 0.00 0.00 94 1018.4
20260505192505 39 159 2.0 7.0 0.00 0.00 0.00 94 1017.8
20260505191645 39 155 2.0 4.0 0.00 0.00 0.00 94 1017.9
20260505190655 39 175 3.0 6.0 0.00 0.00 0.00 94 1018.1
20260505185824 39 137 2.0 5.0 0.00 0.00 0.00 94 1018.1
20260505184852 39 116 3.0 8.0 0.00 0.00 0.00 93 1018.4
20260505184000 38 133 3.0 8.0 0.00 0.00 0.00 93 1018.5
20260505183030 38 92 3.0 7.0 0.00 0.00 0.00 93 1018.9
20260505182050 38 137 5.0 12.0 0.00 0.00 0.00 93 1019.0
20260505181210 38 130 5.0 9.0 0.00 0.00 0.00 92 1019.1
20260505180402 39 145 5.0 10.0 0.00 0.00 0.00 93 1019.0
20260505175545 39 108 3.0 5.0 0.00 0.00 0.00 92 1019.1
20260505174640 38 140 3.0 7.0 0.00 0.00 0.00 91 1019.3
20260505173640 38 211 1.0 3.0 0.00 0.00 0.00 91 1019.6
20260505172645 38 79 3.0 6.0 0.00 0.00 0.00 90 1019.7
20260505171800 38 141 3.0 7.0 0.00 0.00 0.00 90 1019.8
20260505170950 38 135 4.0 8.0 0.00 0.00 0.00 88 1019.8
20260505170052 38 158 3.0 6.0 0.00 0.00 0.00 88 1019.8
20260505165105 38 119 3.0 6.0 0.00 0.00 0.00 88 1019.6
20260505164110 38 108 3.0 5.0 0.00 0.00 0.00 87 1019.4
20260505163215 38 62 2.0 5.0 0.00 0.00 0.00 86 1019.4
20260505162340 39 32 2.0 5.0 0.00 0.00 0.00 86 1019.4
20260505161421 39 60 2.0 5.0 0.00 0.00 0.00 85 1019.4
20260505160622 39 41 2.0 8.0 0.00 0.00 0.00 85 1019.3
20260505153035 39 87 3.0 6.0 0.00 0.00 0.00 84 1019.1
20260505152105 40 36 3.0 6.0 0.00 0.00 0.00 82 1019.0
20260505151250 40 57 3.0 7.0 0.00 0.00 0.00 80 1018.6
20260505150255 41 104 2.0 4.0 0.00 0.00 0.00 80 1018.3
20260505125019 44 148 5.0 7.0 0.00 0.00 0.00 79 1016.0
20260505124049 44 147 4.0 8.0 0.00 0.00 0.00 78 1015.8
20260505123249 44 173 3.0 6.0 0.00 0.00 0.00 77 1015.7
20260505122419 44 112 3.0 6.0 0.00 0.00 0.00 77 1015.1
20260505121529 44 75 4.0 6.0 0.00 0.00 0.00 77 1015.0
20260505120719 44 33 3.0 6.0 0.00 0.00 0.00 76 1014.8
20260505115759 45 137 3.0 5.0 0.00 0.00 0.00 75 1014.5
20260505114859 45 183 3.0 6.0 0.00 0.00 0.00 74 1014.3
20260505114039 45 107 4.0 10.0 0.00 0.00 0.00 74 1014.3
20260505113049 45 157 4.0 7.0 0.00 0.00 0.00 74 1014.0
20260505112114 45 160 2.0 7.0 0.00 0.00 0.00 75 1014.0
20260505111120 45 158 3.0 7.0 0.00 0.00 0.00 76 1013.9
20260505110249 45 89 1.0 4.0 0.00 0.00 0.00 79 1014.1
20260505101900 44 136 2.0 3.0 0.00 0.00 0.00 89 1014.5
20260505100914 44 145 1.0 3.0 0.00 0.00 0.00 90 1014.6
20260505100020 43 130 1.0 2.0 0.00 0.00 0.00 90 1014.8
20260505095219 43 123 1.0 2.0 0.00 0.00 0.00 89 1014.7
20260505094324 44 115 1.0 2.0 0.00 0.00 0.00 88 1014.8
20260505093324 44 142 0.0 2.0 0.00 0.00 0.00 88 1014.2
20260505092524 45 156 1.0 2.0 0.00 0.00 0.00 87 1014.2
20260505091534 45 122 1.0 2.0 0.00 0.00 0.00 86 1014.0
20260505090719 46 133 1.0 2.0 0.00 0.00 0.00 85 1013.7
20260505085740 46 124 1.0 2.0 0.00 0.00 0.00 85 1013.8
20260505084831 46 128 1.0 2.0 0.00 0.00 0.00 84 1014.0
20260505083840 46 0.0 1.0 0.00 0.00 0.00 84 1013.9
20260505082909 46 117 1.0 2.0 0.00 0.00 0.00 83 1014.0
20260505082049 47 129 1.0 2.0 0.00 0.00 0.00 82 1014.1
20260505081109 47 122 0.0 2.0 0.00 0.00 0.00 82 1013.9
20260505080200 47 105 1.0 2.0 0.00 0.00 0.00 81 1013.9
20260505075214 47 57 1.0 2.0 0.00 0.00 0.00 81 1014.1
20260505074229 47 92 1.0 3.0 0.00 0.00 0.00 82 1014.1
20260505073348 47 123 1.0 2.0 0.00 0.00 0.00 83 1014.3
20260505072524 47 111 1.0 2.0 0.00 0.00 0.00 83 1014.4
20260505071644 47 121 1.0 2.0 0.00 0.00 0.00 83 1014.1
20260505070844 47 100 0.0 2.0 0.00 0.00 0.00 82 1014.2
20260505065934 47 97 1.0 2.0 0.00 0.00 0.00 83 1014.2
20260505065114 47 115 1.0 2.0 0.00 0.00 0.00 83 1014.1
20260505064209 47 136 0.0 2.0 0.00 0.00 0.00 83 1014.1
20260505063224 47 135 1.0 2.0 0.00 0.00 0.00 83 1014.1
20260505062354 48 146 1.0 2.0 0.02 0.00 0.00 82 1013.7
20260505061424 48 137 1.0 2.0 0.01 0.00 0.00 81 1013.7
20260505060534 49 154 0.0 2.0 0.02 0.00 0.00 79 1013.4
20260505055539 49 116 0.0 2.0 0.00 0.00 0.00 74 1013.6
20260505054539 50 134 1.0 2.0 0.00 0.00 0.00 70 1013.3
20260505053549 50 52 1.0 3.0 0.00 0.00 0.00 69 1013.2
20260505052629 50 62 1.0 5.0 0.00 0.00 0.00 68 1013.1
20260505051729 50 63 1.0 3.0 0.00 0.00 0.00 68 1012.9
20260505050809 50 40 2.0 4.0 0.00 0.00 0.00 67 1012.9
20260505041404 50 83 1.0 4.0 0.00 0.00 0.00 67 1012.2
20260505040544 50 64 1.0 3.0 0.00 0.00 0.00 66 1012.3
20260505035609 50 133 1.0 4.0 0.00 0.00 0.00 66 1012.2
20260505034609 50 95 1.0 4.0 0.00 0.00 0.00 66 1012.0
20260505033734 51 66 2.0 7.0 0.00 0.00 0.00 65 1011.8
20260505032909 51 69 1.0 3.0 0.00 0.00 0.00 65 1011.7
20260505031909 50 117 1.0 2.0 0.00 0.00 0.00 67 1011.9
20260505030949 50 68 1.0 3.0 0.00 0.00 0.00 67 1011.6
20260505030014 51 111 1.0 3.0 0.00 0.00 0.00 66 1011.1
20260505025040 51 64 0.0 2.0 0.00 0.00 0.00 66 1011.1
20260505024104 51 124 1.0 3.0 0.00 0.00 0.00 66 1011.4
20260505023209 51 138 1.0 2.0 0.00 0.00 0.00 66 1011.0
20260505022234 51 49 2.0 5.0 0.00 0.00 0.00 66 1011.1
20260505021314 52 18 2.0 6.0 0.00 0.00 0.00 66 1011.2
20260505020359 50 116 1.0 4.0 0.00 0.00 0.00 78 1012.0
20260505015532 50 142 1.0 3.0 0.00 0.00 0.00 79 1011.9
20260505014649 50 158 1.0 3.0 0.04 0.00 0.00 80 1011.5
20260505013844 50 181 1.0 5.0 0.00 0.00 0.00 75 1011.2
20260505012904 50 219 1.0 3.0 0.00 0.00 0.00 74 1011.3
20260505011929 53 194 2.0 3.0 0.03 0.00 0.00 70 1010.2
20260505011029 54 174 1.0 4.0 0.07 0.00 0.00 65 1009.7
20260505010229 56 3 1.0 3.0 0.02 0.00 0.00 51 1007.9
20260505005259 58 10 3.0 8.0 0.00 0.00 0.00 48 1006.9
20260505004454 60 1 3.0 7.0 0.00 0.00 0.00 38 1005.5
20260505003509 61 354 4.0 11.0 0.00 0.00 0.00 37 1004.5
20260505002534 62 354 2.0 5.0 0.00 0.00 0.00 34 1004.1
20260505001540 62 57 1.0 4.0 0.00 0.00 0.00 34 1003.7
20260505000619 63 360 3.0 9.0 0.00 0.00 0.00 34 1003.4
20260504235648 63 7 2.0 5.0 0.00 0.00 0.00 34 1002.9
20260504234814 64 78 2.0 4.0 0.00 0.00 0.00 34 1002.4
20260504233947 64 63 3.0 6.0 0.00 0.00 0.00 35 1002.1
20260504233144 64 338 1.0 4.0 0.00 0.00 0.00 36 1002.0
20260504232327 64 11 1.0 4.0 0.00 0.00 0.00 36 1002.3
20260504231528 63 25 1.0 2.0 0.00 0.00 0.00 38 1002.9
20260504230604 63 43 0.0 2.0 0.00 0.00 0.00 41 1002.8
20260504225648 63 33 1.0 3.0 0.00 0.00 0.00 41 1003.0
20260504224748 62 118 1.0 2.0 0.00 0.00 0.00 44 1003.0
20260504223844 61 121 1.0 2.0 0.00 0.00 0.00 44 1003.8
20260504223034 61 232 1.0 3.0 0.00 0.00 0.00 43 1003.9
20260504222109 59 107 2.0 7.0 0.01 0.00 0.00 43 1004.4
20260504221309 61 280 3.0 5.0 0.01 0.00 0.00 43 1004.5
20260504220448 63 10 3.0 6.0 0.00 0.00 0.00 39 1003.5
20260504215628 63 47 2.0 4.0 0.00 0.00 0.00 38 1003.2
20260504214744 62 32 2.0 4.0 0.00 0.00 0.00 42 1003.6
20260504213808 65 10 2.0 5.0 0.00 0.00 0.00 40 1002.2
20260504212829 67 5 4.0 11.0 0.00 0.00 0.00 27 1000.5
20260504211834 69 15 3.0 10.0 0.00 0.00 0.00 25 999.7